Dewpoint
14 14 14 14 13 12 12 12 11 11 11 11 11 11 11 12 12 12 13 13 13 13 13 13 13 13 13 10 10 9 9 11 11 10 8 -0 -2 3 7 7 8 12 11
13 14 13 13 12 12 12 11 11 10 10 10 10 10 10 10 10 10 11 11 11 12 13 13 12 12 12 12 11 10 11 11 10 8 9 11 10 5 -0 1 5 8 7
14 14 13 12 11 8 7 6 4 2 2 1 -1 -3 -4 -5 -4 -3 -1 1 4 6 8 9 10 11 12 12 12 12 11 11 11 10 10 12 12 11 7 1 4 3 4
14 13 12 11 8 5 0 -5 -13 -17 -18 -17 -17 -17 -16 -16 -16 -16 -15 -15 -14 -12 -7 -3 1 4 7 9 10 11 11 11 11 10 11 12 12 12 12 7 7 11 12
13 13 11 9 6 -1 -14 -18 -17 -16 -15 -15 -14 -13 -12 -11 -11 -10 -10 -10 -10 -11 -12 -12 -11 -9 -6 -3 -0 3 7 9 10 10 11 12 11 12 12 11 7 8 8
12 11 10 7 -0 -13 -16 -17 -15 -14 -13 -11 -11 -10 -10 -10 -10 -10 -9 -9 -8 -7 -7 -8 -8 -9 -10 -11 -11 -11 -8 -2 2 7 10 12 12 11 11 11 10 10 8
11 10 8 1 -10 -14 -16 -15 -14 -13 -12 -11 -11 -11 -11 -11 -11 -11 -11 -10 -9 -8 -8 -7 -6 -6 -6 -6 -7 -8 -9 -10 -10 -1 7 10 10 11 11 11 9 9 10
9 7 2 -8 -12 -16 -15 -14 -13 -12 -12 -12 -12 -13 -13 -13 -13 -13 -12 -11 -11 -10 -9 -8 -8 -8 -7 -6 -6 -6 -5 -5 -7 2 6 8 10 10 10 9 11 11 11
8 4 -4 -9 -13 -15 -14 -13 -12 -12 -12 -13 -13 -14 -14 -13 -13 -12 -11 -11 -11 -10 -10 -10 -10 -10 -10 -9 -9 -8 -8 -7 -5 -1 2 5 6 7 8 7 9 10 10
5 -1 -7 -9 -12 -15 -13 -13 -12 -13 -13 -13 -13 -13 -12 -12 -11 -11 -9 -9 -9 -9 -8 -8 -8 -8 -8 -9 -9 -10 -10 -8 -2 -0 3 3 3 3 -0 1 2 4 7
2 -4 -7 -9 -12 -12 -13 -13 -12 -12 -13 -13 -13 -12 -10 -8 -7 -8 -8 -8 -8 -8 -7 -6 -6 -6 -6 -7 -7 -6 -5 -3 -2 0 2 -0 -1 -2 -2 1 3 3 4
3 -3 -6 -8 -13 -12 -12 -11 -12 -11 -11 -11 -11 -10 -8 -9 -10 -7 -6 -8 -9 -9 -8 -8 -7 -7 -6 -5 -4 -4 -2 -3 -2 3 0 0 -2 -6 -5 -2 -1 1 1
3 -3 -6 -8 -12 -12 -11 -11 -10 -10 -10 -10 -10 -11 -11 -11 -11 -10 -7 -7 -7 -7 -8 -8 -6 -7 -7 -6 -7 -7 -3 -1 1 3 1 0 -1 -3 -0 -4 -5 -5 -4
4 -3 -5 -8 -9 -10 -10 -10 -10 -9 -8 -9 -11 -11 -13 -12 -12 -12 -11 -9 -9 -10 -11 -13 -14 -14 -13 -10 -11 -12 -10 -2 2 3 0 1 -2 -3 -3 -2 -2 -3 -2
3 -3 -4 -6 -8 -8 -9 -9 -8 -8 -8 -9 -10 -12 -12 -11 -11 -10 -10 -10 -11 -13 -16 -18 -21 -23 -23 -22 -20 -17 -14 -6 -3 3 0 -3 -5 -4 -2 -1 -0 -1 2
3 -1 -4 -5 -7 -8 -8 -7 -7 -7 -9 -10 -11 -10 -9 -9 -9 -9 -9 -11 -12 -15 -17 -18 -19 -19 -19 -19 -18 -15 -8 1 1 2 1 -4 -5 -5 -4 -3 -3 -2 -1
2 0 -3 -5 -6 -8 -6 -6 -5 -6 -9 -10 -10 -9 -8 -8 -8 -8 -9 -10 -12 -14 -14 -14 -14 -14 -14 -15 -15 -13 -9 -7 2 3 1 -1 -4 -6 -4 -4 -3 -4 -3
1 2 0 -4 -5 -7 -6 -5 -5 -6 -8 -10 -9 -8 -8 -7 -7 -7 -7 -8 -9 -10 -10 -10 -9 -9 -9 -9 -9 -12 -12 -8 -2 -2 -1 -0 -2 -4 -4 -5 -7 -9 -8
1 2 1 -2 -4 -5 -5 -5 -4 -6 -8 -9 -8 -8 -8 -7 -7 -6 -6 -6 -7 -7 -8 -8 -7 -7 -7 -7 -7 -7 -8 -7 -3 0 -1 -3 -5 -3 -6 -8 -8 -14 -12
0 2 2 -1 -3 -4 -5 -5 -5 -6 -8 -8 -7 -8 -8 -7 -7 -6 -5 -5 -5 -5 -5 -6 -6 -6 -6 -7 -7 -6 -6 -6 -7 -7 -3 -5 -7 -8 -11 -15 -16 -15 -14
-0 1 2 0 -2 -3 -5 -5 -3 -2 -1 -4 -6 -7 -8 -7 -7 -6 -5 -5 -5 -4 -4 -4 -4 -5 -6 -6 -6 -7 -6 -5 -5 -6 -6 -4 -2 -7 -11 -16 -17 -16 -20
-2 -1 2 1 -0 -2 -4 -3 -5 -5 -5 -6 -6 -5 -5 -6 -5 -5 -5 -4 -4 -4 -3 -3 -3 -3 -4 -4 -5 -5 -5 -4 -3 -4 -5 -5 -7 -7 -10 -8 -10 -14 -12
-4 -2 -0 1 0 -2 -4 -4 -5 -5 -4 -1 2 1 -0 -2 -1 -1 -1 -1 -1 -2 -3 -3 -3 -2 -2 -4 -4 -4 -5 -4 -5 -5 -5 -4 -5 -4 -4 -5 -5 -6 -7
-3 -2 -0 1 -1 -2 -3 -4 -3 -3 -3 -2 1 1 -0 -1 -3 -1 -0 -0 -1 -1 -1 -2 -2 -2 -1 -3 -3 -3 -3 -3 -4 -4 -4 -4 -4 -3 -3 -3 -4 -5 -5
-0 -1 -1 -2 -2 -3 -4 -5 -7 -7 -6 -5 -4 -4 -3 -2 -1 -0 1 0 -1 -0 -1 -1 -1 -1 -1 -2 -2 -2 -2 -2 -3 -3 -3 -3 -4 -4 -3 -3 -4 -5 -5
1 -2 -2 -2 -2 -4 -7 -7 -6 -6 -5 -5 -4 -4 -2 1 2 2 1 -0 -1 -1 -1 -1 -1 -2 -2 -1 -1 -1 -1 -1 -1 -2 -2 -2 -2 -3 -3 -3 -4 -4 -4
Wind_Speed
6 5 7 7 6 4 3 3 3 4 5 5 6 6 7 7 7 6 6 7 6 6 5 5 6 6 6 7 6 6 7 6 6 6 6 5 5 5 3 2 3 0 3
9 9 7 5 3 2 2 3 4 5 6 6 7 7 8 8 8 9 8 8 8 7 6 6 6 7 7 8 7 7 6 6 6 6 6 5 6 7 5 3 3 3 4
9 8 7 4 2 2 3 4 5 6 6 7 8 9 9 9 9 10 10 10 10 10 11 11 11 10 9 8 7 7 7 7 6 6 4 6 7 9 10 6 4 5 4
9 8 6 3 1 3 4 5 6 6 7 8 9 9 10 10 10 10 9 9 10 10 10 12 12 12 12 11 11 10 9 8 7 6 6 5 8 9 9 9 6 5 6
10 7 5 2 1 3 4 5 6 7 7 8 8 9 10 10 11 11 10 10 10 10 11 12 12 12 13 13 13 13 12 12 9 3 3 8 8 13 12 9 8 8 9
7 7 4 1 1 2 4 6 6 7 7 8 8 9 9 9 10 10 11 11 11 11 11 12 12 12 12 12 12 12 12 12 11 8 3 6 7 11 11 12 10 9 9
6 5 3 1 1 3 5 6 7 7 8 8 9 9 9 9 10 11 11 11 11 11 12 12 12 12 12 12 11 11 10 9 7 3 4 10 9 12 15 14 12 10 10
10 5 3 1 1 3 5 6 7 7 8 9 9 10 10 10 11 11 11 11 11 11 11 11 11 12 12 12 11 11 9 8 3 4 6 11 13 15 17 17 10 10 11
9 5 3 2 1 2 4 5 6 7 8 9 10 10 11 11 11 11 11 11 11 11 11 11 11 11 11 12 12 12 10 8 5 8 7 8 13 14 15 12 10 11 10
9 6 3 1 3 4 4 5 6 7 9 10 10 11 12 11 13 11 12 11 11 10 10 10 10 10 10 10 10 9 8 6 5 6 7 12 14 13 13 12 11 12 12
9 6 4 2 1 2 4 5 5 7 8 9 10 10 11 11 10 13 12 12 12 12 11 9 9 9 8 8 6 6 4 5 6 6 11 14 14 13 13 12 12 12 12
10 7 5 3 2 2 4 5 7 8 9 9 9 9 9 10 10 11 13 13 12 12 13 12 10 9 9 8 8 6 6 7 3 7 10 12 11 11 11 13 14 14 14
9 8 5 3 2 3 3 5 5 7 8 9 9 9 9 10 10 10 10 11 11 11 11 11 9 9 9 9 8 6 6 6 3 8 11 11 10 7 9 10 13 13 13
11 8 6 4 4 4 3 5 5 7 8 8 9 9 9 10 10 10 10 11 11 10 10 10 10 9 8 8 8 8 6 4 3 10 10 9 8 9 9 8 8 8 9
11 9 7 6 5 3 5 4 5 7 7 8 8 8 9 10 11 10 11 11 11 11 10 10 9 9 8 7 7 7 6 6 4 9 11 10 8 8 8 7 7 7 5
10 9 8 7 4 4 4 5 7 8 7 6 6 6 8 9 11 12 11 12 12 12 12 11 10 10 9 9 9 7 6 2 8 7 12 10 6 6 7 7 8 8 7
13 11 9 8 5 5 4 5 9 10 8 6 6 5 7 9 11 12 12 13 13 13 12 12 11 11 11 10 10 8 8 7 6 9 8 11 10 7 7 7 7 8 8
12 12 10 9 7 5 4 6 10 11 8 6 5 7 7 9 10 11 12 13 13 13 12 12 12 11 11 12 12 9 9 8 9 9 10 8 11 12 8 7 8 9 10
13 13 13 10 9 6 6 8 10 10 7 7 7 8 9 10 10 11 11 12 12 13 12 12 12 13 12 11 13 11 11 10 10 10 10 11 10 9 12 11 11 12 11
13 13 14 12 11 8 8 10 10 7 7 8 8 10 10 12 13 12 12 13 12 12 13 13 13 13 14 14 14 12 13 11 10 8 8 10 11 12 13 13 13 12 12
15 16 17 15 13 10 10 10 9 8 8 10 11 12 13 13 13 13 14 14 14 13 13 13 14 14 14 14 16 15 8 8 9 8 10 13 13 16 16 13 12 13 15
18 18 17 16 13 12 11 11 10 10 10 12 13 16 16 14 15 14 15 15 15 15 14 14 15 16 15 16 16 12 8 5 7 10 17 13 16 16 15 16 15 15 17
17 17 17 15 15 14 12 12 10 10 11 10 11 14 15 15 15 15 14 15 16 16 15 15 15 15 17 14 14 10 5 3 16 6 9 14 14 18 19 19 21 21 19
15 15 16 17 14 13 13 12 12 13 12 11 13 16 16 18 16 14 13 14 15 15 15 16 16 16 17 16 14 12 12 13 8 11 7 10 19 18 19 24 21 22 22
16 16 16 14 13 13 12 12 12 12 12 12 13 14 14 12 12 11 12 13 14 14 14 14 15 16 17 18 17 17 17 16 16 17 27 23 22 21 22 25 28 25 25
15 13 12 12 12 10 10 10 11 12 11 12 12 12 11 9 10 11 12 12 12 12 13 14 16 17 18 20 20 20 20 20 20 16 22 32 33 32 27 26 28 29 26
Wind_Direction
170 157 131 122 110 77 51 21 5 359 349 342 337 336 338 339 341 348 359 15 15 7 360 348 349 356 353 344 346 344 342 342 348 353 356 349 333 321 333 21 141 258 294
172 148 139 124 101 75 36 359 349 344 340 337 335 333 332 331 329 328 328 324 321 327 334 325 323 328 331 332 333 332 333 335 342 349 356 0 359 348 328 302 253 271 255
168 158 148 138 117 47 4 344 339 336 334 328 325 325 323 320 318 316 314 310 307 304 303 299 298 300 301 306 316 324 317 312 325 344 12 16 336 332 330 306 277 264 269
149 191 151 141 71 4 352 344 339 338 335 337 335 333 330 328 327 323 319 312 305 297 290 287 286 287 288 287 286 285 288 296 312 343 26 338 311 301 309 311 290 273 292
184 183 146 119 14 354 344 344 346 348 348 344 341 338 335 336 332 330 325 318 312 306 299 294 294 290 287 286 283 282 281 282 285 312 9 318 299 305 280 297 288 277 287
208 157 148 145 354 346 344 349 351 353 350 350 349 347 344 341 336 332 330 326 323 319 314 311 307 305 302 297 293 290 285 280 278 270 198 299 296 292 280 289 286 283 288
193 154 154 154 354 347 352 351 353 356 356 356 355 353 349 344 339 336 333 328 325 323 320 318 317 315 312 309 307 304 302 297 288 269 231 239 261 261 271 282 285 283 280
184 155 156 166 349 347 354 356 357 358 360 358 358 356 351 348 344 343 342 337 333 329 325 322 319 317 312 310 310 308 307 305 299 214 232 247 244 262 269 272 276 282 282
172 181 181 157 327 354 3 2 360 359 2 360 359 356 351 348 350 351 351 344 340 338 335 330 325 320 316 315 312 310 309 307 293 256 255 250 259 263 272 275 262 263 278
177 184 184 187 3 343 25 360 1 358 359 359 358 354 350 348 352 1 349 344 343 341 340 338 334 330 327 321 319 319 318 312 283 280 263 256 264 270 270 272 273 268 269
183 188 191 196 253 318 345 346 353 355 351 349 354 354 350 353 352 344 344 346 345 343 341 346 345 344 340 328 329 331 321 274 276 265 258 266 274 273 267 268 272 273 271
191 191 200 209 257 306 322 344 348 349 347 348 346 353 353 352 352 354 351 351 351 347 340 347 345 345 345 343 333 335 319 307 296 293 278 282 287 281 274 269 267 269 273
199 199 206 215 254 291 317 328 337 334 336 336 347 352 356 352 356 352 344 346 348 347 346 344 343 339 342 344 334 328 316 322 297 267 283 294 287 274 269 271 275 281 282
207 207 212 224 257 280 303 318 328 333 334 338 343 354 355 359 358 351 353 351 348 349 350 348 344 342 338 337 331 332 318 314 327 289 288 296 291 273 274 283 284 280 276
214 212 216 232 257 288 302 318 332 335 330 331 339 354 0 1 359 356 356 354 351 350 351 350 349 345 341 342 341 333 326 313 271 268 283 293 290 280 272 272 284 289 296
222 226 222 232 259 282 303 329 336 331 323 317 332 355 360 359 359 360 358 354 354 352 351 349 350 349 346 343 338 333 321 321 305 269 282 298 303 294 294 294 293 284 277
216 238 231 236 251 271 301 328 329 331 316 309 324 346 352 356 357 357 355 356 354 353 354 354 354 352 346 343 341 328 319 300 261 289 284 295 299 296 295 295 297 299 299
220 229 237 239 251 263 293 318 322 319 309 306 309 324 337 343 348 350 352 353 352 352 352 353 353 356 352 350 346 335 325 310 302 287 288 275 295 305 308 307 306 304 300
211 228 236 240 243 256 285 303 313 308 295 293 300 305 318 326 332 337 341 343 346 346 347 349 350 349 350 350 347 336 328 315 276 277 284 295 298 294 301 300 296 297 295
215 226 241 244 243 255 278 295 309 306 292 290 293 299 306 311 317 323 326 331 334 336 340 340 339 340 340 342 342 335 329 327 318 299 293 299 301 302 300 301 305 305 302
211 218 230 243 245 253 268 295 309 307 298 297 299 296 298 300 305 312 315 318 320 323 327 329 333 334 334 333 335 337 352 337 327 320 329 311 309 308 311 310 308 304 305
219 225 224 239 242 252 267 284 286 269 279 287 291 293 296 298 302 306 308 310 309 309 313 317 324 328 333 333 337 343 342 332 288 317 310 309 306 301 306 307 308 309 309
219 227 225 233 237 252 269 281 281 279 284 289 300 301 303 302 301 302 304 306 306 304 305 308 314 321 324 331 326 331 327 299 301 284 303 291 307 314 311 312 310 306 307
214 224 222 224 240 250 266 274 280 285 288 285 277 281 284 290 296 298 303 307 308 305 303 304 308 314 315 318 317 313 305 296 303 303 289 281 299 301 304 306 306 307 305
216 222 224 226 236 251 267 278 284 287 287 288 291 293 298 302 302 303 304 309 312 311 308 304 304 305 309 310 309 306 301 299 291 281 294 304 297 291 298 299 302 304 306
218 217 213 223 239 255 269 280 287 288 289 290 292 294 298 297 298 309 314 321 320 318 314 309 308 308 307 305 304 301 298 296 296 282 280 293 295 301 301 297 293 302 305
Height
1547 1548 1548 1549 1549 1549 1549 1549 1548 1547 1547 1547 1547 1547 1546 1546 1546 1546 1545 1545 1544 1543 1543 1542 1542 1541 1540 1540 1540 1539 1539 1539 1539 1539 1538 1538 1538 1538 1538 1538 1538 1538 1538
1546 1547 1548 1549 1550 1550 1549 1549 1548 1548 1547 1547 1547 1546 1546 1546 1545 1545 1545 1545 1544 1543 1542 1542 1541 1541 1540 1540 1539 1539 1539 1538 1538 1538 1538 1538 1537 1538 1537 1538 1537 1537 1538
1546 1547 1548 1549 1549 1549 1549 1549 1548 1548 1547 1546 1546 1545 1544 1544 1544 1543 1543 1543 1543 1542 1541 1541 1540 1540 1539 1539 1538 1538 1538 1538 1538 1538 1538 1538 1537 1537 1537 1537 1537 1537 1537
1546 1546 1547 1549 1549 1549 1549 1548 1548 1547 1546 1546 1545 1544 1543 1543 1542 1542 1541 1540 1540 1539 1538 1538 1537 1537 1537 1537 1537 1537 1537 1537 1537 1537 1537 1538 1538 1537 1537 1537 1536 1536 1536
1545 1547 1548 1548 1549 1548 1548 1548 1548 1547 1546 1546 1545 1544 1543 1542 1541 1540 1539 1539 1538 1537 1536 1535 1535 1535 1535 1534 1534 1534 1535 1535 1535 1537 1537 1537 1537 1536 1536 1535 1535 1535 1535
1545 1547 1547 1548 1548 1548 1548 1547 1547 1547 1546 1545 1545 1544 1543 1542 1541 1540 1539 1538 1537 1536 1535 1534 1533 1533 1532 1532 1532 1532 1532 1533 1533 1534 1535 1536 1535 1534 1533 1533 1533 1533 1533
1545 1546 1547 1548 1548 1548 1548 1547 1547 1546 1546 1545 1545 1544 1543 1542 1541 1540 1539 1537 1536 1534 1533 1533 1532 1531 1531 1530 1530 1530 1529 1530 1530 1531 1533 1532 1533 1532 1531 1532 1531 1531 1531
1544 1546 1547 1548 1548 1548 1548 1547 1547 1546 1545 1545 1544 1543 1542 1541 1540 1539 1538 1537 1535 1534 1533 1531 1530 1529 1529 1528 1527 1527 1527 1528 1528 1528 1529 1529 1529 1529 1529 1529 1529 1528 1529
1545 1545 1546 1547 1548 1548 1548 1548 1547 1546 1545 1545 1543 1542 1541 1541 1540 1539 1538 1536 1535 1533 1532 1531 1529 1528 1527 1527 1526 1525 1525 1526 1526 1526 1526 1525 1526 1526 1526 1525 1525 1526 1526
1544 1546 1546 1547 1547 1546 1548 1548 1547 1546 1545 1544 1543 1542 1541 1540 1538 1538 1537 1536 1534 1533 1531 1530 1529 1528 1526 1525 1524 1524 1523 1523 1523 1523 1522 1523 1523 1523 1523 1523 1522 1522 1523
1544 1545 1546 1547 1547 1547 1547 1547 1547 1546 1545 1544 1543 1542 1540 1539 1539 1537 1536 1534 1533 1532 1530 1529 1528 1527 1526 1525 1523 1523 1522 1521 1521 1521 1520 1520 1520 1520 1520 1520 1520 1519 1520
1543 1544 1545 1546 1547 1547 1547 1546 1546 1545 1544 1544 1543 1542 1541 1539 1538 1537 1535 1534 1532 1531 1530 1528 1526 1525 1525 1524 1523 1521 1521 1520 1520 1519 1518 1518 1518 1517 1517 1517 1516 1516 1516
1541 1542 1544 1545 1546 1546 1546 1546 1546 1545 1544 1543 1542 1541 1540 1539 1538 1537 1535 1533 1531 1530 1528 1527 1526 1524 1523 1522 1522 1521 1520 1519 1519 1517 1516 1516 1515 1514 1514 1514 1514 1514 1514
1540 1541 1543 1544 1545 1546 1545 1545 1545 1544 1543 1543 1542 1541 1539 1538 1537 1536 1534 1533 1531 1530 1528 1526 1525 1523 1522 1520 1520 1519 1519 1518 1518 1515 1514 1514 1513 1512 1512 1512 1511 1511 1511
1539 1540 1542 1543 1544 1544 1545 1545 1544 1543 1543 1542 1541 1540 1539 1538 1537 1536 1534 1532 1531 1529 1527 1525 1524 1522 1521 1519 1518 1517 1517 1517 1516 1514 1513 1512 1511 1511 1510 1510 1509 1509 1509
1539 1540 1541 1542 1543 1543 1544 1543 1543 1543 1542 1541 1540 1540 1539 1538 1536 1535 1533 1532 1530 1528 1527 1525 1523 1521 1520 1518 1517 1515 1515 1515 1514 1514 1511 1510 1509 1509 1509 1508 1508 1507 1507
1538 1538 1539 1540 1541 1542 1542 1542 1542 1541 1541 1540 1539 1539 1538 1537 1536 1534 1533 1531 1529 1528 1526 1524 1523 1521 1519 1517 1516 1514 1513 1513 1513 1511 1510 1508 1507 1507 1507 1506 1506 1505 1505
1537 1537 1538 1539 1540 1541 1541 1541 1541 1540 1539 1539 1538 1538 1538 1537 1535 1534 1533 1531 1529 1527 1526 1524 1522 1519 1518 1516 1515 1513 1512 1511 1510 1509 1509 1508 1506 1505 1506 1505 1504 1504 1503
1536 1536 1536 1538 1539 1540 1540 1540 1540 1539 1538 1537 1537 1537 1536 1535 1534 1533 1532 1530 1529 1527 1525 1523 1521 1518 1516 1515 1514 1512 1510 1509 1508 1507 1506 1506 1505 1505 1503 1503 1502 1501 1500
1534 1535 1535 1536 1537 1538 1538 1538 1538 1537 1536 1536 1535 1535 1534 1533 1532 1531 1530 1529 1528 1527 1525 1523 1521 1518 1515 1513 1512 1510 1507 1506 1505 1505 1504 1504 1503 1503 1502 1501 1500 1499 1499
1532 1533 1533 1533 1534 1536 1536 1536 1535 1535 1534 1534 1533 1533 1532 1531 1530 1529 1528 1527 1526 1525 1523 1522 1520 1517 1515 1512 1509 1507 1505 1504 1504 1503 1503 1502 1501 1499 1499 1498 1498 1497 1495
1528 1530 1531 1531 1532 1533 1534 1534 1533 1533 1533 1532 1532 1530 1529 1528 1527 1527 1526 1525 1523 1522 1521 1519 1518 1516 1514 1512 1509 1505 1503 1503 1503 1502 1501 1500 1500 1498 1497 1495 1494 1494 1493
1524 1526 1527 1529 1530 1530 1531 1531 1531 1530 1530 1530 1529 1527 1526 1525 1525 1524 1523 1522 1521 1519 1518 1517 1516 1514 1512 1512 1509 1509 1504 1503 1500 1499 1499 1499 1498 1496 1494 1492 1491 1490 1489
1521 1523 1524 1525 1527 1528 1528 1528 1527 1527 1527 1527 1526 1525 1524 1522 1521 1521 1520 1519 1518 1516 1515 1514 1513 1512 1511 1509 1509 1507 1505 1503 1500 1496 1495 1494 1494 1493 1491 1490 1488 1486 1485
1518 1519 1521 1523 1524 1524 1525 1525 1525 1524 1524 1523 1523 1521 1520 1519 1518 1518 1518 1516 1515 1514 1512 1511 1511 1510 1508 1507 1506 1505 1502 1500 1499 1496 1489 1488 1490 1490 1487 1485 1483 1482 1481
1515 1517 1519 1520 1521 1522 1523 1522 1522 1522 1521 1521 1520 1518 1518 1517 1517 1516 1515 1514 1513 1511 1510 1509 1507 1506 1505 1503 1502 1501 1499 1497 1495 1494 1489 1484 1482 1480 1481 1480 1478 1477 1476